| time (UTC) | temp C | wind direction | speed KPH | gust KPH | rain 1hr cm | rain 24hr cm | rain mn cm | humidity % | barometer mb |
| 20260509034600 | 10 | 0 | 0.0 | 1.6 | 0.00 | 0.00 | 0.00 | 64 | 1003.6 |
| 20260509033051 | 10 | 0 | 0.0 | 0.0 | 0.00 | 0.00 | 0.00 | 63 | 1003.6 |
| 20260509031600 | 10 | 0 | 0.0 | 0.0 | 0.00 | 0.00 | 0.00 | 66 | 1003.3 |
| 20260509030053 | 10 | 0 | 0.0 | 3.2 | 0.00 | 0.00 | 0.00 | 65 | 1003.3 |
| 20260509024554 | 10 | 0 | 0.0 | 3.2 | 0.00 | 0.00 | 0.00 | 63 | 1003.4 |
| 20260509023058 | 10 | 0 | 0.0 | 0.0 | 0.00 | 0.00 | 0.00 | 62 | 1003.3 |
| 20260509021549 | 10 | 0 | 0.0 | 0.0 | 0.00 | 0.00 | 0.00 | 59 | 1003.4 |
| 20260509020056 | 9 | 0 | 0.0 | 0.0 | 0.00 | 0.00 | 0.00 | 60 | 1003.5 |
| 20260509014550 | 10 | 0 | 0.0 | 0.0 | 0.00 | 0.00 | 0.00 | 58 | 1003.3 |
| 20260509013113 | 10 | 0 | 0.0 | 0.0 | 0.00 | 0.00 | 0.00 | 56 | 1003.1 |
| 20260509011555 | 10 | 0 | 0.0 | 0.0 | 0.00 | 0.00 | 0.00 | 54 | 1002.7 |
| 20260509010053 | 10 | 0 | 0.0 | 4.8 | 0.00 | 0.00 | 0.00 | 54 | 1002.8 |
| 20260509004553 | 10 | 0 | 0.0 | 3.2 | 0.00 | 0.00 | 0.00 | 55 | 1002.4 |
| 20260509003103 | 10 | 285 | 0.0 | 4.8 | 0.00 | 0.00 | 0.00 | 53 | 1002.1 |
| 20260509001557 | 11 | 279 | 0.0 | 3.2 | 0.00 | 0.00 | 0.00 | 53 | 1001.9 |
| 20260509000057 | 11 | 257 | 0.0 | 3.2 | 0.00 | 0.00 | 0.00 | 50 | 1002.0 |
| 20260508234556 | 11 | 0 | 0.0 | 3.2 | 0.00 | 0.00 | 0.00 | 53 | 1002.0 |
| 20260508233056 | 12 | 0 | 0.0 | 6.4 | 0.00 | 0.00 | 0.00 | 52 | 1001.9 |
| 20260508231559 | 12 | 0 | 0.0 | 3.2 | 0.00 | 0.00 | 0.00 | 51 | 1001.7 |
| 20260508230100 | 13 | 0 | 0.0 | 3.2 | 0.00 | 0.00 | 0.00 | 48 | 1001.7 |
| 20260508224604 | 13 | 0 | 0.0 | 3.2 | 0.00 | 0.00 | 0.00 | 47 | 1001.4 |
| 20260508223049 | 13 | 0 | 0.0 | 3.2 | 0.00 | 0.00 | 0.00 | 41 | 1001.4 |
| 20260508221557 | 14 | 33 | 0.0 | 6.4 | 0.00 | 0.00 | 0.00 | 44 | 1001.5 |
| 20260508220053 | 13 | 0 | 0.0 | 6.4 | 0.00 | 0.00 | 0.00 | 41 | 1001.4 |
| 20260508214553 | 14 | 146 | 1.6 | 4.8 | 0.00 | 0.00 | 0.00 | 42 | 1001.3 |
| 20260508213114 | 13 | 0 | 4.8 | 14.5 | 0.00 | 0.00 | 0.00 | 39 | 1001.2 |
| 20260508211552 | 13 | 95 | 3.2 | 9.7 | 0.00 | 0.00 | 0.00 | 40 | 1001.2 |
| 20260508210056 | 14 | 127 | 6.4 | 14.5 | 0.00 | 0.00 | 0.00 | 40 | 1001.0 |
| 20260508204557 | 14 | 0 | 0.0 | 11.3 | 0.00 | 0.00 | 0.00 | 41 | 1001.4 |
| 20260508203109 | 14 | 0 | 3.2 | 16.1 | 0.00 | 0.00 | 0.00 | 39 | 1001.2 |
| 20260508201554 | 15 | 0 | 1.6 | 11.3 | 0.00 | 0.00 | 0.00 | 42 | 1001.2 |
| 20260508200054 | 15 | 0 | 3.2 | 14.5 | 0.00 | 0.00 | 0.00 | 41 | 1001.2 |
| 20260508194552 | 14 | 135 | 1.6 | 14.5 | 0.00 | 0.00 | 0.00 | 43 | 1001.3 |
| 20260508193125 | 14 | 151 | 3.2 | 11.3 | 0.00 | 0.00 | 0.00 | 44 | 1001.2 |
| 20260508191553 | 13 | 138 | 1.6 | 11.3 | 0.00 | 0.00 | 0.00 | 45 | 1001.4 |
| 20260508190058 | 13 | 0 | 1.6 | 9.7 | 0.00 | 0.00 | 0.00 | 51 | 1001.3 |
| 20260508184629 | 13 | 147 | 1.6 | 8.0 | 0.00 | 0.00 | 0.00 | 52 | 1001.3 |
| 20260508183049 | 13 | 150 | 1.6 | 8.0 | 0.00 | 0.00 | 0.00 | 53 | 1001.5 |
| 20260508181559 | 13 | 170 | 1.6 | 9.7 | 0.00 | 0.00 | 0.00 | 53 | 1001.4 |
| 20260508180100 | 13 | 190 | 3.2 | 9.7 | 0.00 | 0.00 | 0.00 | 55 | 1001.5 |
| 20260508174606 | 13 | 141 | 3.2 | 9.7 | 0.00 | 0.00 | 0.00 | 52 | 1001.5 |
| 20260508173105 | 13 | 181 | 1.6 | 8.0 | 0.00 | 0.00 | 0.00 | 54 | 1001.3 |
| 20260508171623 | 12 | 40 | 1.6 | 9.7 | 0.00 | 0.00 | 0.00 | 58 | 1001.5 |
| 20260508170059 | 12 | 143 | 4.8 | 9.7 | 0.00 | 0.00 | 0.00 | 57 | 1001.7 |
| 20260508164559 | 12 | 191 | 3.2 | 8.0 | 0.00 | 0.00 | 0.00 | 56 | 1001.9 |
| 20260508163056 | 12 | 216 | 3.2 | 20.9 | 0.00 | 0.00 | 0.00 | 54 | 1002.0 |
| 20260508161601 | 11 | 0 | 0.0 | 0.0 | 0.00 | 0.00 | 0.00 | 57 | 1002.1 |
| 20260508160059 | 11 | 0 | 0.0 | 0.0 | 0.00 | 0.00 | 0.00 | 58 | 1002.3 |
| 20260508154554 | 11 | 0 | 0.0 | 1.6 | 0.00 | 0.00 | 0.00 | 56 | 1002.3 |
| 20260508153053 | 11 | 0 | 0.0 | 0.0 | 0.00 | 0.00 | 0.00 | 56 | 1001.9 |
| 20260508151558 | 11 | 0 | 0.0 | 0.0 | 0.00 | 0.00 | 0.00 | 58 | 1001.8 |
| 20260508150059 | 11 | 0 | 0.0 | 0.0 | 0.00 | 0.00 | 0.00 | 58 | 1001.9 |
| 20260508144552 | 11 | 0 | 0.0 | 0.0 | 0.00 | 0.00 | 0.00 | 58 | 1001.8 |
| 20260508143056 | 11 | 0 | 0.0 | 0.0 | 0.00 | 0.00 | 0.00 | 53 | 1002.1 |
| 20260508141551 | 11 | 0 | 0.0 | 1.6 | 0.00 | 0.00 | 0.00 | 55 | 1002.2 |
| 20260508140050 | 10 | 0 | 0.0 | 0.0 | 0.00 | 0.00 | 0.00 | 56 | 1002.3 |
| 20260508134619 | 11 | 0 | 0.0 | 0.0 | 0.00 | 0.00 | 0.00 | 56 | 1002.3 |
| 20260508133109 | 10 | 0 | 0.0 | 0.0 | 0.00 | 0.00 | 0.00 | 59 | 1002.2 |
| 20260508131550 | 10 | 0 | 0.0 | 0.0 | 0.00 | 0.00 | 0.00 | 62 | 1002.2 |
| 20260508130056 | 9 | 0 | 0.0 | 0.0 | 0.00 | 0.00 | 0.00 | 63 | 1002.3 |
| 20260508124552 | 8 | 0 | 0.0 | 0.0 | 0.00 | 0.00 | 0.00 | 66 | 1002.3 |
| 20260508123103 | 8 | 0 | 0.0 | 9.7 | 0.00 | 0.00 | 0.00 | 69 | 1002.4 |
| 20260508121559 | 8 | 127 | 3.2 | 9.7 | 0.00 | 0.00 | 0.00 | 72 | 1002.4 |
| 20260508120056 | 7 | 135 | 1.6 | 8.0 | 0.00 | 0.00 | 0.00 | 74 | 1002.6 |
| 20260508114559 | 7 | 116 | 1.6 | 11.3 | 0.00 | 0.00 | 0.00 | 76 | 1002.6 |
| 20260508113056 | 6 | 220 | 3.2 | 12.9 | 0.00 | 0.00 | 0.00 | 78 | 1002.6 |
| 20260508111559 | 6 | 189 | 1.6 | 9.7 | 0.00 | 0.00 | 0.00 | 84 | 1002.7 |
| 20260508110051 | 5 | 160 | 1.6 | 4.8 | 0.00 | 0.00 | 0.00 | 86 | 1002.4 |
| 20260508104555 | 5 | 0 | 0.0 | 0.0 | 0.00 | 0.00 | 0.00 | 85 | 1002.1 |
| 20260508103053 | 4 | 0 | 0.0 | 0.0 | 0.00 | 0.00 | 0.00 | 85 | 1002.2 |
| 20260508101549 | 4 | 0 | 0.0 | 0.0 | 0.00 | 0.00 | 0.00 | 85 | 1002.1 |
| 20260508100055 | 5 | 0 | 0.0 | 0.0 | 0.00 | 0.00 | 0.00 | 83 | 1002.1 |
| 20260508094602 | 5 | 0 | 0.0 | 1.6 | 0.00 | 0.00 | 0.00 | 82 | 1001.8 |
| 20260508093053 | 5 | 0 | 0.0 | 0.0 | 0.00 | 0.00 | 0.00 | 80 | 1001.8 |
| 20260508091614 | 5 | 0 | 0.0 | 0.0 | 0.00 | 0.00 | 0.00 | 79 | 1001.7 |
| 20260508084552 | 6 | 0 | 0.0 | 4.8 | 0.00 | 0.00 | 0.00 | 75 | 1001.6 |
| 20260508083053 | 7 | 0 | 0.0 | 3.2 | 0.00 | 0.00 | 0.00 | 74 | 1001.4 |
| 20260508081552 | 7 | 191 | 3.2 | 9.7 | 0.00 | 0.00 | 0.00 | 71 | 1001.5 |
| 20260508080055 | 7 | 50 | 1.6 | 6.4 | 0.00 | 0.00 | 0.00 | 72 | 1001.5 |
| 20260508074549 | 7 | 169 | 1.6 | 6.4 | 0.00 | 0.00 | 0.00 | 73 | 1001.3 |
| 20260508073053 | 7 | 223 | 0.0 | 4.8 | 0.00 | 0.00 | 0.00 | 75 | 1001.2 |
| 20260508071554 | 7 | 210 | 1.6 | 8.0 | 0.00 | 0.00 | 0.00 | 74 | 1001.4 |
| 20260508070100 | 7 | 225 | 3.2 | 12.9 | 0.00 | 0.00 | 0.00 | 75 | 1001.4 |
| 20260508064552 | 7 | 202 | 0.0 | 11.3 | 0.00 | 0.00 | 0.00 | 75 | 1001.5 |
| 20260508063125 | 7 | 230 | 0.0 | 6.4 | 0.00 | 0.00 | 0.00 | 74 | 1001.5 |
| 20260508061554 | 7 | 0 | 0.0 | 3.2 | 0.00 | 0.00 | 0.00 | 72 | 1001.3 |
| 20260508060056 | 8 | 200 | 0.0 | 6.4 | 0.00 | 0.00 | 0.00 | 69 | 1001.7 |
| 20260508054549 | 8 | 149 | 3.2 | 17.7 | 0.00 | 0.03 | 0.00 | 64 | 1001.8 |
| 20260508053058 | 8 | 146 | 1.6 | 4.8 | 0.00 | 0.03 | 0.00 | 62 | 1001.4 |
| 20260508051616 | 8 | 0 | 0.0 | 4.8 | 0.00 | 0.03 | 0.00 | 59 | 1001.2 |
| 20260508050055 | 8 | 306 | 0.0 | 3.2 | 0.00 | 0.03 | 0.00 | 60 | 1000.4 |
| 20260508044550 | 8 | 18 | 0.0 | 0.0 | 0.00 | 0.03 | 0.00 | 63 | 1000.1 |
| 20260508043052 | 8 | 0 | 0.0 | 0.0 | 0.00 | 0.03 | 0.00 | 63 | 1000.4 |
| 20260508041554 | 8 | 0 | 0.0 | 0.0 | 0.00 | 0.03 | 0.00 | 63 | 1000.5 |
| 20260508040051 | 8 | 0 | 0.0 | 0.0 | 0.00 | 0.03 | 0.00 | 61 | 1000.3 |